Wind_Speed
13 13 16 16 16 15 13 12 13 12 10 10 10 10 9 10 10 9 8 6 7 9 10 12 15 17 17 18 20 18 16 19 22 22 22 20 18 17 16 15 12 11 12 10 9 10 12 13 13 15 17 16 16 19 20 18 16 14 16 18 17 15 14 13 12 10 9 7 4 2 4 6 9 11 13 14 15 16 15 13 10 7 8 9 11 11
13 13 14 13 12 12 13 13 13 13 13 10 8 8 8 10 10 8 7 5 5 7 10 12 14 16 18 18 20 21 17 18 20 21 22 21 19 18 17 16 13 12 12 11 9 9 11 12 13 14 17 16 15 18 20 18 15 15 20 20 16 15 14 14 12 11 9 6 4 1 3 5 8 11 13 15 17 17 17 16 13 9 6 7 10 11
14 15 12 10 11 12 12 14 14 13 14 13 9 9 9 9 9 7 5 3 4 5 8 10 11 13 17 18 18 19 18 18 17 17 19 20 20 18 17 17 16 13 12 11 10 9 9 11 12 13 15 16 16 18 19 19 17 18 21 19 16 15 14 13 12 10 8 6 3 1 2 4 7 9 12 15 17 17 17 17 15 12 8 6 7 10
12 12 11 11 11 11 11 14 15 14 14 14 11 9 9 8 7 5 3 3 5 5 7 7 8 13 18 17 16 17 18 17 15 16 18 21 20 18 18 18 18 16 13 12 11 9 9 10 12 12 12 13 15 17 19 20 19 19 19 18 16 16 14 12 11 9 7 4 2 1 2 4 6 8 11 14 16 16 17 16 15 13 10 7 6 7
13 9 8 11 10 8 9 11 14 15 15 14 12 10 9 7 5 4 3 3 4 4 5 5 7 12 17 16 16 17 17 15 14 16 20 22 21 20 19 18 18 17 13 12 11 9 8 9 11 11 11 13 14 15 16 18 17 16 17 17 16 15 14 12 11 9 7 4 3 1 1 3 5 7 9 13 15 16 17 16 14 13 11 9 6 5
17 12 7 10 10 8 8 9 11 14 14 12 12 11 9 6 4 3 2 3 4 3 3 7 5 7 15 16 15 16 16 14 14 16 20 21 21 19 19 19 19 18 15 14 13 10 9 9 11 12 11 13 15 15 15 17 17 15 15 15 15 15 15 14 11 9 7 5 3 1 1 3 4 6 9 11 13 15 16 17 16 13 12 11 8 6
18 14 10 9 6 4 8 10 10 12 12 11 11 11 9 7 4 3 2 3 4 3 5 6 4 5 11 14 13 13 13 12 13 15 16 18 19 19 19 19 20 19 17 16 15 13 11 11 12 12 11 12 14 15 15 16 17 15 14 14 14 16 16 15 12 10 8 5 4 3 3 4 5 6 8 10 10 13 14 16 17 15 13 13 11 9
15 14 11 8 4 1 6 10 10 11 12 12 11 10 9 7 4 3 5 5 4 4 3 4 7 6 7 11 12 11 10 10 13 15 15 16 17 18 19 20 21 21 19 18 17 15 13 12 13 12 12 12 13 16 17 17 16 15 14 13 14 16 16 15 13 10 8 6 5 5 6 6 7 7 9 10 10 11 12 14 16 16 14 13 12 10
13 13 10 8 5 2 4 7 10 12 13 13 11 9 9 5 3 4 6 5 5 6 4 4 9 6 5 10 11 10 10 10 11 14 15 15 15 17 18 20 23 22 21 20 18 16 14 13 13 13 13 14 17 19 19 18 16 15 14 14 14 15 14 14 12 10 8 7 6 7 8 9 9 9 10 12 12 12 11 12 14 14 13 12 11 10
9 9 8 8 7 4 2 3 8 13 14 13 11 10 9 4 3 5 6 5 5 6 5 5 8 4 4 10 12 11 11 10 11 14 16 16 17 17 17 20 23 24 24 23 21 18 15 15 16 16 18 22 26 29 28 25 22 19 16 14 13 14 14 13 11 10 9 8 7 8 9 10 11 11 11 12 12 12 12 11 12 13 12 10 9 8
10 9 9 9 8 6 2 1 5 10 12 11 12 12 8 5 5 5 6 5 4 4 5 6 7 5 4 9 12 12 11 11 11 13 15 17 18 18 18 20 23 26 26 25 24 23 20 19 20 21 22 25 28 27 25 24 25 24 21 17 15 13 12 11 10 9 9 9 9 9 10 11 12 12 11 11 11 11 11 10 10 12 11 9 8 7
14 13 13 12 11 8 6 4 3 7 11 12 13 12 7 5 5 5 5 5 4 3 5 7 8 7 4 7 13 12 11 12 11 11 13 13 14 15 18 21 24 26 27 27 27 26 24 22 22 24 24 24 24 22 19 17 18 21 24 23 21 17 13 9 8 8 8 9 10 11 12 13 13 13 12 11 11 11 10 9 8 10 10 8 7 6
13 14 14 13 13 12 10 8 5 7 11 13 13 12 8 4 4 4 3 3 3 3 4 8 8 6 4 8 14 14 13 14 13 12 12 11 11 13 16 20 23 25 27 28 28 28 26 25 25 25 24 23 22 19 16 15 14 15 17 18 19 19 15 9 7 7 9 11 11 13 14 14 15 15 14 13 12 11 10 9 7 8 9 7 6 6
10 12 14 14 15 14 13 11 9 9 12 14 15 13 9 4 2 3 2 1 3 3 5 8 7 5 6 10 15 15 15 15 15 14 13 13 12 12 13 15 19 24 28 30 29 29 29 28 28 28 26 25 24 19 12 11 12 13 15 16 17 17 14 14 13 12 13 13 14 15 15 15 16 16 15 13 12 12 11 9 6 7 7 5 5 5
6 7 11 14 15 15 14 13 11 11 13 15 16 15 13 9 4 3 3 3 3 3 6 8 6 4 7 11 15 16 15 14 14 14 14 14 14 14 14 13 14 19 26 30 31 31 31 32 32 31 28 25 24 18 6 5 11 14 14 14 14 18 18 17 18 17 15 14 16 17 17 18 18 19 19 16 14 14 13 10 6 6 6 4 3 4
7 6 8 12 15 16 15 14 14 13 13 15 17 16 14 13 9 5 5 6 5 3 5 8 6 4 7 10 13 15 15 14 13 14 14 14 15 15 16 16 15 17 22 29 33 32 31 34 35 32 29 25 24 17 3 0 9 11 9 11 12 17 22 22 20 16 13 14 17 18 19 20 21 23 22 19 17 17 17 15 8 6 6 2 1 3
8 8 8 11 15 17 16 14 16 16 13 14 18 18 16 14 13 9 5 5 6 4 5 6 4 5 9 9 10 12 12 12 11 12 13 13 14 15 17 18 19 20 22 27 31 32 32 34 35 33 28 23 21 16 6 4 6 7 7 11 13 14 20 23 20 13 11 16 20 20 20 20 21 25 25 24 22 21 23 20 11 7 5 1 2 3
9 7 7 10 13 15 17 16 15 18 17 15 16 18 17 13 13 11 4 3 3 3 4 5 2 5 9 7 9 12 10 9 9 9 11 13 14 16 17 18 21 23 23 25 28 30 31 27 22 19 17 16 17 17 14 9 4 6 10 14 15 14 13 14 14 13 14 19 23 23 22 20 20 24 27 30 30 29 30 25 14 8 5 3 3 4
12 9 6 8 11 13 17 18 15 17 20 18 15 15 14 9 10 12 6 3 5 3 2 4 2 6 10 7 8 13 12 10 10 9 8 9 8 7 7 8 8 9 10 12 14 17 19 13 4 3 5 9 13 14 14 11 6 9 14 15 15 14 11 9 12 14 15 18 21 21 19 17 16 16 20 28 31 31 29 20 13 9 6 5 5 5
14 11 6 6 11 11 14 18 17 17 20 20 17 15 15 11 10 14 10 6 8 4 2 4 2 5 11 10 9 11 12 11 9 8 10 10 9 9 10 11 12 13 12 10 8 5 5 5 6 8 6 5 6 7 8 8 8 11 14 15 13 11 10 9 10 11 12 15 16 15 12 12 12 9 11 18 22 22 19 13 15 11 9 9 9 9
16 14 9 6 9 11 12 16 18 17 19 21 21 19 18 15 12 13 11 8 8 4 2 4 2 5 13 14 12 12 13 13 13 14 14 11 11 11 12 15 16 16 14 12 10 10 9 9 11 13 12 10 10 9 9 9 9 10 11 11 10 9 8 7 7 8 9 10 10 9 8 9 10 8 9 12 12 10 12 15 16 13 13 13 12 12
17 18 15 11 10 11 13 15 16 17 18 20 22 23 23 21 17 11 7 8 8 5 5 6 3 7 15 16 15 15 14 16 17 16 14 9 8 9 11 13 15 14 13 11 9 8 10 12 14 14 13 12 10 10 10 9 9 9 9 9 8 7 6 5 5 6 7 7 7 7 7 7 8 7 8 11 10 11 16 18 17 16 16 15 15 14
16 17 17 14 13 14 13 14 15 16 18 18 20 23 23 22 21 15 7 9 12 8 7 8 4 7 16 17 16 17 17 19 18 16 15 10 7 10 11 12 13 13 13 12 10 10 12 13 14 13 12 11 9 9 10 10 9 9 8 8 7 6 6 5 5 6 6 7 7 7 7 6 5 6 8 11 12 14 19 21 20 18 17 17 17 16
15 14 15 12 10 12 13 13 15 15 14 15 16 20 20 20 21 18 12 13 16 13 9 7 3 7 17 18 16 17 19 21 19 17 16 12 11 14 14 12 11 11 12 10 9 11 12 12 13 13 12 10 9 9 9 10 10 10 9 8 7 6 5 4 5 5 6 7 8 8 8 7 6 6 6 8 11 14 19 22 22 21 20 20 20 18
12 11 13 11 7 8 10 10 12 13 12 13 14 15 15 17 19 17 13 13 16 17 15 9 3 9 18 19 16 16 17 21 22 18 16 15 15 16 16 14 12 11 11 10 11 12 13 14 14 14 14 12 11 11 11 12 12 11 10 9 7 6 5 4 5 6 8 9 10 10 10 10 9 8 7 8 11 15 20 23 24 24 23 23 22 21
12 11 13 12 7 7 7 6 10 12 11 11 12 12 11 12 15 15 14 13 13 16 18 11 6 13 21 20 17 15 15 18 23 21 18 17 17 18 19 17 14 13 12 13 14 15 16 16 15 16 16 14 13 13 14 13 12 12 11 10 8 7 7 8 10 12 13 12 12 12 13 14 12 9 7 8 12 16 20 24 26 27 28 27 26 25
13 12 12 13 12 11 10 9 14 16 14 13 14 14 13 11 12 13 13 13 14 16 17 14 11 17 23 21 17 17 15 16 21 23 21 20 19 20 22 21 18 15 15 15 17 19 19 18 18 19 19 17 16 17 16 15 14 13 12 11 10 10 12 14 15 15 15 14 13 13 14 15 15 13 12 10 12 16 20 24 29 30 31 32 30 28
15 12 9 9 9 9 8 8 11 15 16 16 16 17 17 15 14 14 13 12 14 14 12 13 14 17 23 23 19 18 17 17 20 23 23 22 22 23 23 22 20 18 17 18 19 20 21 21 21 22 21 20 19 19 18 17 16 14 13 13 13 15 16 16 15 15 15 14 14 13 14 15 16 17 17 15 14 15 18 24 31 34 34 34 33 32
16 13 10 8 5 5 6 4 4 7 10 14 15 14 15 14 13 15 15 13 13 12 10 12 15 18 22 23 21 19 19 19 21 24 24 24 25 25 24 23 22 20 19 20 21 21 22 22 23 23 23 22 21 20 19 18 17 16 15 15 16 16 16 16 15 16 15 15 15 15 15 16 17 18 19 18 17 16 16 20 29 37 38 36 36 35
14 14 13 11 8 7 8 7 6 5 5 8 10 9 9 9 8 9 11 10 10 10 8 8 13 19 22 22 22 20 19 20 22 24 25 25 25 26 25 25 24 23 21 22 22 23 23 23 24 24 23 22 21 21 20 19 18 17 17 16 16 15 15 15 15 15 15 16 17 17 17 18 18 19 20 20 19 18 18 18 24 34 41 40 38 38
14 13 14 14 10 7 7 8 7 5 5 5 5 6 5 5 5 5 5 6 5 5 4 5 11 17 20 20 20 19 18 19 21 22 24 25 25 25 25 24 24 23 22 23 24 24 24 25 24 24 22 22 21 20 20 20 19 19 18 17 16 16 15 15 14 13 12 13 15 17 18 18 18 18 19 20 19 19 20 21 21 27 37 43 41 40
19 18 18 19 15 11 9 8 8 7 4 3 3 1 1 3 5 6 4 3 2 1 1 5 10 15 18 18 18 17 17 17 18 19 21 23 24 24 24 23 23 23 23 24 25 25 25 24 24 23 22 22 22 22 21 21 20 19 19 19 18 18 16 15 14 13 11 11 12 13 15 17 17 18 19 20 19 17 17 20 21 22 29 40 45 45
19 21 24 23 18 16 16 15 14 10 6 10 13 10 8 7 4 3 5 6 5 4 3 5 8 12 16 18 18 17 16 16 16 17 18 20 22 24 24 24 24 24 24 24 24 25 24 24 24 23 23 23 23 23 23 23 22 21 20 20 19 18 17 16 15 14 13 12 12 12 13 15 17 18 19 19 19 17 16 17 21 22 24 33 40 42
15 17 20 21 17 15 15 14 12 8 7 13 18 18 17 18 17 16 17 15 12 10 9 8 8 10 13 17 18 18 17 17 17 18 18 20 23 24 25 25 25 25 25 25 25 25 25 25 25 25 25 25 24 24 24 24 24 23 22 20 19 18 18 17 17 17 16 16 15 14 14 15 16 18 20 19 19 18 17 17 19 22 24 27 31 32
15 16 17 19 16 15 17 14 8 5 11 16 18 18 19 20 19 18 18 17 15 15 13 11 11 11 12 15 17 17 17 17 17 18 19 20 22 23 24 24 25 25 25 25 25 25 25 26 26 26 27 26 26 26 26 26 25 23 22 22 21 20 19 19 19 19 19 19 18 18 17 16 16 18 20 21 21 20 20 20 21 22 24 26 27 25
11 16 20 19 14 14 20 18 8 5 12 16 15 16 17 17 17 16 15 15 15 16 17 16 15 15 15 16 18 19 18 17 17 17 18 18 19 20 20 21 22 22 23 24 24 24 25 26 27 27 28 28 28 27 26 26 26 24 23 23 23 22 21 21 21 21 21 20 20 19 18 17 17 18 19 21 22 22 23 24 23 23 23 23 22 21
8 13 17 17 14 15 21 19 8 4 8 14 16 17 18 18 17 16 15 15 16 17 19 19 19 20 20 20 21 21 20 19 17 17 17 17 17 17 18 18 19 20 21 22 22 23 25 25 25 25 26 26 26 25 23 22 23 24 24 24 24 24 24 23 23 23 23 22 20 18 18 17 18 19 20 21 22 23 25 26 26 25 25 24 22 22
6 9 14 15 15 18 20 14 6 2 5 13 17 17 18 18 18 18 16 14 16 18 18 17 18 20 21 21 21 20 19 19 18 18 18 17 17 17 17 17 18 18 19 20 20 21 23 23 22 23 24 24 24 24 23 23 23 23 24 25 25 26 26 26 25 25 24 24 22 20 18 19 20 21 22 22 23 24 26 29 30 28 28 28 27 24
11 10 10 9 10 17 20 12 6 5 7 12 17 18 18 18 19 18 13 12 16 18 17 17 18 19 21 21 20 20 19 18 18 18 19 18 18 18 18 19 19 20 20 21 21 22 22 23 23 23 24 24 24 25 24 24 24 24 25 26 26 27 28 27 27 26 26 25 24 22 21 21 22 22 21 21 22 23 26 29 32 32 31 30 27 24
18 16 12 8 8 14 17 11 7 7 8 13 18 20 19 20 20 15 9 10 17 18 17 18 19 19 20 20 19 19 18 17 18 18 18 19 19 20 21 21 22 22 23 23 24 24 25 25 25 25 25 25 25 25 25 25 25 25 26 26 27 28 28 28 28 28 27 27 26 26 25 24 24 23 22 21 22 23 26 29 32 33 32 28 25 24
11 13 15 15 13 13 13 9 7 7 8 12 18 21 21 21 18 13 9 12 17 19 19 21 20 20 20 20 19 19 18 18 19 18 18 19 19 20 21 22 23 24 25 26 27 27 28 28 28 28 28 28 28 28 29 29 29 29 29 30 30 30 31 31 31 31 31 30 30 29 29 28 27 25 23 22 22 23 26 28 31 34 34 30 27 26
3 4 7 11 12 13 14 12 7 7 9 11 14 19 21 17 13 12 12 12 16 19 21 21 21 21 21 21 20 20 19 20 20 19 20 20 20 21 22 23 24 25 27 28 29 30 31 31 31 32 32 32 33 33 34 35 35 36 36 36 35 36 37 37 37 36 36 36 35 34 34 33 32 29 26 24 24 24 25 26 28 31 34 34 32 30
2 2 3 6 8 10 12 10 6 7 11 12 12 16 19 16 13 13 12 12 16 20 22 22 22 22 22 22 21 21 21 21 21 20 21 21 21 22 23 24 25 27 28 30 31 32 34 34 34 35 35 36 37 38 39 41 42 42 42 42 42 42 43 43 43 43 42 41 40 39 38 37 35 34 31 28 26 26 25 25 26 28 30 33 34 34
1 1 2 3 4 6 8 9 7 8 11 14 14 15 18 18 15 13 11 12 16 20 22 22 22 21 20 20 20 20 21 21 21 21 22 22 23 24 25 26 27 29 30 31 33 34 36 37 38 38 39 40 42 43 44 45 46 46 46 46 46 46 47 47 47 47 46 44 42 41 40 39 37 36 34 31 29 28 28 27 28 30 31 32 34 35
1 1 2 1 2 3 5 7 7 8 11 14 15 15 17 18 17 14 13 14 17 19 20 20 20 20 19 19 18 18 19 20 21 22 22 23 24 25 26 28 29 31 32 34 36 37 39 40 42 42 43 43 44 45 47 47 49 49 49 48 48 49 50 50 51 50 49 48 46 44 43 41 39 37 36 34 32 31 31 31 31 32 32 32 33 34
3 2 1 1 2 3 4 5 5 7 11 13 13 13 14 15 15 13 13 15 16 17 16 16 16 16 16 16 17 18 19 20 22 23 24 25 26 27 29 30 31 33 35 36 38 39 40 41 42 42 43 42 42 43 44 46 47 49 49 49 49 49 50 51 52 53 53 52 51 49 47 45 43 40 39 38 36 34 35 36 36 35 35 34 34 34
4 3 2 3 4 5 7 7 6 6 9 10 10 10 10 10 11 11 11 12 13 14 14 14 15 16 17 18 19 20 21 23 24 25 26 27 27 28 29 31 32 33 34 35 35 35 36 37 38 38 39 40 40 40 41 43 44 46 47 48 48 48 48 49 50 51 52 52 52 51 50 49 47 45 43 41 40 39 39 40 41 40 39 37 37 37
4 3 3 5 4 4 6 8 7 6 7 7 7 8 8 8 9 9 9 10 12 12 13 14 15 16 17 19 20 21 22 23 24 25 25 26 26 27 28 29 30 30 30 30 31 31 33 34 35 36 37 38 39 40 41 42 43 44 46 47 47 48 48 48 48 48 49 50 50 50 50 49 49 48 47 45 44 44 44 44 45 45 43 41 40 40
2 2 3 4 3 3 5 7 6 6 6 6 6 6 7 8 8 8 9 11 11 12 13 15 16 17 18 19 20 21 22 23 24 25 25 25 25 26 27 27 28 27 28 28 29 30 32 33 34 35 37 39 40 41 43 43 44 45 46 47 49 50 50 49 48 48 48 48 48 48 47 46 46 47 49 49 49 48 47 46 46 47 47 46 45 45
1 1 3 4 3 5 6 6 7 6 5 5 6 6 6 7 8 9 11 12 13 14 15 16 17 18 19 20 21 22 22 23 23 23 23 23 23 24 25 26 26 26 26 26 26 28 29 31 33 34 34 35 35 36 36 37 37 39 40 42 45 48 50 51 51 50 48 48 47 46 45 45 44 44 46 49 51 52 51 50 48 46 45 45 46 46
4 3 3 4 5 7 7 7 8 8 6 6 7 7 8 9 10 11 12 13 14 15 16 17 18 19 19 20 21 21 21 20 21 21 22 22 23 24 25 24 24 23 22 22 23 25 26 27 27 26 25 25 25 25 26 27 28 30 32 34 35 38 42 46 50 51 49 48 47 46 45 44 44 44 43 45 49 52 54 54 52 48 46 44 43 42
Wind_Direction
188 192 195 197 199 203 206 208 212 211 194 180 182 191 198 208 213 210 216 236 248 254 255 252 251 242 229 222 215 210 203 195 194 198 198 193 192 192 189 182 175 177 173 164 161 158 162 173 180 179 177 175 174 177 182 179 170 173 184 183 175 165 162 165 166 163 155 144 132 72 28 18 20 21 22 23 19 16 12 5 350 313 272 255 248 241
193 199 200 200 204 208 214 219 222 220 207 193 191 197 205 213 215 213 220 249 260 262 269 258 248 235 223 217 212 210 205 194 190 193 196 196 195 195 193 185 178 188 192 182 181 173 165 171 174 175 180 182 178 176 180 182 179 183 186 182 175 168 166 168 171 170 165 156 147 87 16 8 12 14 18 20 18 15 13 9 2 343 304 264 251 245
206 211 203 200 214 219 222 226 229 228 215 209 210 211 215 217 218 215 211 268 287 280 279 258 233 211 203 203 201 199 199 195 191 192 195 199 199 196 195 191 185 195 205 196 192 186 172 171 171 171 178 182 180 180 183 187 186 184 184 183 180 174 170 173 176 176 173 162 150 103 13 9 12 13 16 19 17 14 11 8 4 355 336 299 264 250
214 225 219 213 220 222 226 229 228 226 216 211 213 218 218 209 213 215 203 288 299 297 284 247 206 187 185 188 186 189 196 198 196 197 198 201 202 198 196 196 195 200 209 205 200 192 178 174 173 171 174 178 181 180 180 183 182 178 181 186 186 178 174 177 180 183 186 175 163 110 22 8 10 12 12 13 14 12 9 6 4 358 347 326 297 267
222 236 225 210 213 213 221 228 220 213 208 207 214 218 210 194 211 230 225 281 295 310 280 202 165 170 176 178 178 185 196 198 198 201 200 200 200 199 198 201 203 205 208 209 209 205 192 183 177 172 171 178 186 185 177 175 175 173 180 187 188 182 179 181 184 189 197 196 186 177 11 5 7 8 6 7 9 10 7 3 2 359 353 338 316 294
226 228 203 187 199 207 209 213 206 202 203 209 216 208 194 189 208 221 226 270 259 253 200 171 153 157 169 175 178 185 196 200 201 200 199 198 196 197 198 201 207 210 207 205 208 210 202 193 184 178 179 180 184 186 178 173 173 173 178 184 187 187 187 188 191 194 203 208 202 220 320 349 358 359 358 358 4 9 4 359 358 357 355 348 331 310
225 218 202 185 195 207 204 205 200 200 205 214 211 193 186 192 193 195 220 254 238 196 180 191 198 151 159 173 178 185 196 202 201 194 190 192 194 198 199 199 204 211 210 205 207 207 202 199 193 186 188 185 181 184 184 179 176 175 176 178 183 191 194 194 197 202 208 217 223 245 283 307 328 341 344 345 355 4 0 355 355 355 353 350 341 325
212 204 203 201 205 205 200 207 206 201 204 206 201 193 190 189 186 201 221 235 221 177 164 184 177 151 152 168 169 178 190 196 198 192 186 190 196 201 203 201 203 209 213 210 210 210 208 205 196 192 195 196 193 190 188 184 179 176 174 173 177 187 196 198 200 207 216 229 240 260 279 293 308 321 327 328 336 348 353 353 353 352 352 349 342 329
202 201 204 205 210 203 180 202 210 205 205 206 199 191 183 176 186 205 209 220 210 195 186 157 161 153 148 157 158 173 188 194 199 198 197 201 206 208 210 208 205 209 214 214 213 213 215 212 200 196 200 209 210 200 193 188 181 177 174 172 176 183 190 196 200 207 221 239 251 265 278 287 296 305 312 316 321 329 338 346 349 349 348 348 344 331
204 200 202 206 215 220 151 167 201 201 207 212 200 183 179 194 228 212 209 205 197 207 210 180 173 167 150 154 154 166 181 188 196 204 211 218 223 225 225 217 209 209 213 215 215 212 212 213 207 201 204 217 220 210 201 194 187 184 178 174 179 184 188 194 203 212 225 245 261 268 276 283 288 292 297 303 308 314 323 336 343 345 346 346 343 334
221 217 218 221 222 231 227 151 184 194 200 203 193 182 187 214 222 208 203 195 194 216 211 195 189 178 160 164 165 166 171 175 185 201 214 224 231 231 228 220 212 209 212 215 216 215 212 212 212 208 210 224 234 228 217 207 197 194 191 185 181 180 186 193 201 217 232 249 263 270 276 279 279 280 283 289 295 300 311 326 336 339 342 344 344 337
233 235 232 227 228 238 242 235 213 196 189 188 190 190 191 190 188 194 196 190 196 207 198 196 191 187 184 181 179 175 172 176 183 193 206 217 223 220 214 211 211 212 214 215 217 218 216 216 217 215 215 224 240 248 248 241 225 215 210 203 194 185 179 189 206 220 239 255 267 275 280 282 281 280 280 281 284 286 294 309 326 336 335 337 344 342
240 238 233 233 238 241 240 240 231 200 186 187 192 190 185 167 167 192 201 204 216 220 203 195 187 188 192 182 180 178 177 182 186 186 192 199 203 206 206 208 212 215 217 217 216 218 219 221 223 222 222 224 234 247 258 266 263 252 245 237 227 210 186 186 224 240 250 259 268 274 278 280 278 279 279 276 274 272 277 287 307 328 329 332 345 350
240 238 234 236 241 236 233 230 215 200 194 196 198 193 185 158 147 197 188 240 247 225 205 196 187 177 169 173 177 177 177 181 184 186 190 193 196 202 205 212 217 218 218 217 217 219 221 223 225 226 226 225 230 238 248 268 269 264 268 272 269 257 222 205 223 241 249 252 257 261 263 266 267 270 270 264 260 258 260 269 287 312 317 326 346 0
223 230 227 228 233 229 224 220 208 202 203 206 208 207 201 184 176 201 194 204 210 188 188 189 190 173 161 170 176 178 183 185 186 190 195 199 203 208 211 219 225 223 220 217 216 220 223 226 228 228 227 229 237 240 232 264 256 247 254 261 269 273 259 232 224 234 249 257 260 261 260 261 264 268 270 265 257 247 245 253 267 289 300 317 354 15
223 235 224 219 223 221 218 216 210 209 212 215 213 212 214 209 207 204 194 198 182 159 186 192 196 175 162 174 180 181 187 190 193 197 202 207 211 214 219 227 236 237 228 220 219 222 224 229 232 231 231 235 246 260 297 11 244 244 260 266 257 259 261 251 234 232 257 278 279 280 282 277 270 266 266 263 254 240 240 249 251 260 275 292 40 52
222 237 233 223 219 213 213 215 214 213 213 212 208 212 219 218 213 202 176 173 175 178 199 197 198 172 171 188 192 184 185 190 197 204 211 221 226 229 233 235 240 243 237 226 222 224 227 234 238 237 236 237 243 258 259 200 231 255 277 277 263 259 264 260 252 251 277 287 285 284 285 285 278 270 266 260 249 241 247 252 245 238 246 201 117 102
219 234 238 234 228 215 213 220 221 218 216 210 206 214 220 214 207 203 172 123 171 204 203 196 207 178 175 188 194 193 198 204 214 226 232 237 240 240 239 238 240 243 239 230 225 227 231 241 254 253 246 244 246 249 238 224 245 264 261 265 266 274 282 274 269 273 278 282 285 288 290 294 292 285 281 270 249 241 251 250 230 218 218 166 148 130
223 240 253 247 241 225 217 221 220 216 218 218 220 222 218 204 190 190 179 155 185 195 177 187 217 200 189 180 183 198 210 220 232 239 227 217 212 207 206 210 220 223 219 218 221 230 236 243 290 316 241 238 243 239 228 229 254 253 252 261 267 280 295 290 283 284 285 288 294 301 305 305 299 295 296 281 258 251 258 242 195 191 194 167 168 153
219 231 245 241 237 228 217 216 214 211 212 216 222 223 217 209 192 187 187 184 187 185 148 176 205 215 200 189 179 192 205 210 207 184 161 151 138 121 111 105 101 105 111 116 120 135 197 196 122 113 136 168 184 188 196 215 238 246 253 262 268 279 287 286 293 297 296 294 295 305 308 295 292 294 291 280 265 259 257 215 176 182 185 174 177 169
220 225 228 224 229 223 213 214 215 215 213 211 213 212 210 207 191 184 192 193 184 175 147 172 192 203 199 196 189 189 193 187 165 148 143 129 115 117 112 105 105 108 109 110 117 123 134 152 151 147 150 157 164 175 191 207 222 237 251 259 265 275 282 289 301 296 290 291 298 312 302 278 284 285 259 254 249 230 208 188 180 185 182 179 179 175
216 222 224 219 220 216 214 220 218 215 217 217 217 215 212 208 194 179 189 197 188 183 178 180 187 193 193 195 195 190 182 174 161 148 145 134 117 133 134 124 122 121 120 123 132 144 152 163 169 169 171 175 181 190 201 208 217 231 244 255 266 277 286 293 292 282 281 289 299 311 305 287 287 281 241 221 209 185 178 181 188 190 186 183 183 182
213 219 218 214 219 222 222 222 213 209 213 216 220 219 215 212 204 194 194 194 189 190 188 185 194 198 193 192 193 190 180 176 171 159 156 158 157 159 155 149 149 148 150 153 156 163 168 171 176 179 181 185 194 203 210 216 222 231 242 253 264 270 276 276 271 269 273 284 294 303 311 307 286 263 229 211 205 191 182 184 192 196 193 188 188 191
204 206 202 195 204 211 204 197 191 193 199 201 212 216 211 211 209 207 214 206 192 187 178 173 192 200 191 188 189 189 186 186 185 175 171 176 176 169 162 160 165 169 174 178 180 180 179 180 184 189 193 200 212 221 223 226 228 232 238 244 251 257 264 268 270 279 283 288 296 297 299 293 275 271 268 253 239 215 195 192 196 201 201 198 196 199
196 193 185 169 160 184 187 185 183 180 179 185 199 208 208 211 211 212 217 206 193 191 186 178 182 189 187 187 187 189 191 195 196 190 182 182 183 180 172 164 165 175 184 187 189 190 189 191 196 200 207 218 228 227 226 229 230 231 232 234 239 245 255 269 283 296 299 295 293 291 288 281 276 283 296 286 259 226 204 198 201 205 207 206 204 205
188 188 192 186 176 180 181 184 191 189 186 187 194 200 204 210 213 213 208 197 194 197 194 191 187 182 184 186 188 191 194 199 201 199 191 186 190 191 186 182 180 186 196 197 194 195 197 201 207 209 215 228 233 227 226 229 229 231 233 237 246 258 278 296 303 305 302 295 288 283 280 278 277 273 266 262 251 234 217 208 207 210 212 212 212 211
187 185 203 213 210 203 196 193 196 198 198 196 200 205 207 207 213 217 210 202 204 201 195 200 200 185 181 183 188 194 194 195 199 200 196 192 194 195 194 193 192 195 204 205 200 199 202 208 212 213 219 228 226 221 224 227 229 234 240 248 263 280 294 301 305 307 305 299 289 279 274 274 273 267 259 249 239 236 232 225 219 216 216 216 217 216
203 190 208 230 220 205 203 202 201 202 202 201 201 203 205 205 211 220 222 218 213 204 199 206 203 187 182 183 186 193 195 193 194 197 196 195 196 197 196 196 196 200 208 211 207 205 207 212 216 218 222 224 219 219 224 228 233 240 249 262 276 287 293 299 305 309 309 305 297 285 276 271 269 267 264 257 244 236 237 234 228 224 221 220 221 222
201 188 198 215 200 185 191 181 172 190 197 193 186 185 189 191 198 211 218 220 216 213 214 213 202 188 185 186 187 191 195 194 193 194 196 197 199 200 199 199 200 204 212 215 213 212 213 216 218 219 220 219 219 222 226 231 239 248 258 271 281 287 292 300 309 314 312 308 300 291 282 275 271 267 262 260 255 247 241 236 231 227 224 223 223 224
191 172 175 182 162 155 172 164 139 142 169 172 163 157 160 160 165 186 195 195 200 208 216 216 203 192 187 188 188 190 194 196 195 196 197 199 201 202 202 202 204 210 215 216 214 214 216 216 217 217 218 218 222 227 233 240 247 255 264 273 278 284 291 300 308 312 311 306 298 291 284 277 272 267 261 258 259 257 253 244 235 229 225 223 225 226
205 183 178 183 173 153 159 163 158 156 151 139 120 104 104 110 117 135 148 151 168 193 196 196 200 196 191 190 190 189 192 195 196 198 200 201 202 204 205 207 209 213 215 213 213 214 215 215 217 219 221 225 230 234 240 247 253 260 266 270 272 276 283 292 299 304 306 304 296 289 283 276 270 264 259 257 258 260 257 248 241 234 227 223 225 229
222 216 203 198 202 208 207 207 208 199 197 234 240 232 52 85 103 104 95 81 60 353 206 192 200 200 197 196 194 192 192 194 197 200 202 204 206 207 209 211 214 216 214 213 214 215 216 218 221 225 229 233 237 240 245 249 254 259 262 264 267 270 274 281 288 294 297 297 295 290 284 279 273 265 261 260 259 261 260 248 239 238 231 225 226 231
220 222 215 209 210 217 224 231 227 220 249 260 242 236 245 242 230 252 282 304 321 309 264 228 220 214 208 203 199 198 198 198 201 205 207 209 210 211 213 216 218 218 217 217 217 218 220 223 225 229 233 237 240 244 247 250 253 255 258 262 265 268 272 277 280 282 284 287 291 291 287 282 278 272 267 264 261 262 262 251 241 239 236 230 229 233
210 217 221 218 212 209 213 217 210 202 233 240 233 235 244 246 249 257 265 273 278 267 253 244 237 234 225 213 205 203 205 206 208 211 213 214 214 214 216 218 219 220 220 220 222 224 226 227 229 232 235 238 241 245 249 251 253 255 259 262 266 269 273 277 277 276 277 281 286 289 287 283 280 275 269 266 265 263 261 256 248 244 243 240 239 240
202 205 210 210 205 196 185 174 163 193 221 226 227 231 238 239 241 245 251 254 249 239 232 232 235 241 238 228 220 216 214 214 216 217 218 220 221 222 223 223 224 224 225 226 228 229 230 231 233 236 238 240 242 245 248 251 252 255 258 262 267 270 273 275 276 276 276 280 283 284 284 283 280 277 273 268 267 265 261 257 253 248 246 243 242 241
199 204 203 197 187 177 170 164 164 220 218 217 220 221 223 226 227 230 233 232 225 217 213 217 225 231 233 234 232 227 223 222 222 223 224 226 228 230 232 234 235 236 237 237 238 239 240 240 240 242 243 244 245 247 248 249 252 255 259 263 266 268 270 272 273 274 276 278 281 281 280 280 278 277 276 274 271 268 264 261 257 255 253 248 241 236
192 202 204 194 182 175 175 177 188 213 209 213 214 213 215 216 217 217 215 214 216 214 212 214 218 220 221 222 221 220 218 218 219 221 224 226 229 232 235 238 240 243 245 247 248 250 251 251 250 251 253 254 255 256 256 255 257 260 261 262 263 264 266 268 269 271 273 274 275 275 273 272 271 271 272 272 270 268 266 263 261 260 259 255 247 237
194 199 203 201 197 190 182 179 181 179 214 218 212 207 207 207 208 209 208 211 215 215 214 215 217 217 214 211 209 209 210 211 212 215 220 223 225 229 232 235 238 242 245 248 251 254 257 261 263 265 267 268 268 269 269 267 266 265 264 264 265 265 266 266 267 268 269 270 269 267 263 262 264 266 267 265 263 262 263 262 261 258 255 254 252 244
227 221 210 207 211 200 190 186 194 200 209 212 208 203 201 199 200 200 201 210 213 212 213 213 212 213 210 207 206 206 206 208 211 215 219 223 226 229 233 236 239 242 245 248 252 255 258 263 266 268 269 270 270 270 270 269 268 268 268 267 266 266 265 265 267 267 267 267 266 263 259 258 261 265 266 264 260 259 260 262 261 257 251 249 251 248
233 233 232 245 241 210 200 201 210 214 212 205 201 199 195 194 193 189 188 206 208 207 208 207 206 207 208 207 207 207 207 211 216 220 225 228 230 233 237 240 243 246 250 252 255 258 260 263 265 267 267 267 268 269 269 270 271 272 273 272 270 268 266 265 267 268 269 270 269 266 263 262 262 261 262 262 259 258 259 260 259 256 248 243 243 243
232 229 235 241 233 214 210 215 221 230 227 209 200 196 192 189 190 194 206 212 206 204 203 201 201 204 205 206 209 210 213 218 222 227 230 233 237 240 242 246 250 252 256 259 261 263 265 267 269 271 272 271 271 271 271 271 272 273 274 274 273 271 270 269 269 270 271 271 270 268 267 266 264 261 258 256 256 256 256 256 258 257 250 242 238 238
205 205 219 219 209 207 215 218 224 241 237 222 209 201 194 190 196 210 217 208 199 198 198 198 200 204 205 208 211 214 218 222 226 231 234 238 242 245 248 251 254 256 259 261 263 264 266 267 269 270 270 270 270 270 270 270 270 270 270 270 268 267 267 267 267 268 269 269 268 267 266 266 265 263 259 255 254 255 256 256 258 257 252 245 240 238
166 150 165 174 178 192 200 196 204 236 231 224 219 207 200 200 209 216 213 202 194 195 197 200 203 206 209 212 215 219 223 226 230 235 239 243 247 250 253 256 258 260 262 263 265 265 265 266 267 267 268 269 269 269 270 270 269 269 268 268 266 265 265 264 264 265 265 265 264 264 264 264 264 264 261 257 254 254 254 253 254 254 251 247 245 242
122 136 150 161 172 185 188 188 205 226 219 211 209 205 203 206 211 213 211 206 200 199 201 205 207 211 214 217 221 226 230 234 238 242 246 251 254 256 259 261 262 264 265 266 267 268 269 269 270 270 271 272 272 272 272 271 270 270 269 267 266 265 264 264 264 264 263 262 261 260 260 261 261 262 261 258 255 254 252 250 249 250 249 248 247 246
144 169 174 182 186 188 189 195 204 203 192 192 196 199 203 207 211 209 206 203 203 204 207 210 213 218 222 226 231 237 241 246 250 252 255 258 260 263 265 266 268 269 269 270 271 271 272 272 273 273 274 274 274 274 274 273 273 272 270 269 267 265 263 262 261 261 260 260 258 257 257 257 257 257 258 258 256 253 248 245 243 243 245 246 247 247
151 159 170 154 142 144 153 169 182 183 181 183 187 191 197 204 209 210 206 201 201 204 209 215 222 229 236 241 246 251 254 258 260 262 264 266 268 270 271 272 273 273 273 274 274 275 275 276 276 277 276 276 276 275 275 274 273 272 271 269 267 265 264 262 260 258 257 256 256 254 253 253 252 251 252 253 253 251 245 239 236 237 239 242 243 245
130 112 97 122 126 129 138 145 151 163 171 178 184 187 192 198 204 209 210 209 211 216 223 230 238 245 251 256 260 263 266 267 268 270 272 273 275 276 276 276 276 276 277 278 280 281 282 282 281 280 279 278 278 277 276 276 275 274 273 271 269 267 265 263 261 259 257 256 255 254 252 251 249 248 247 246 245 245 243 239 235 234 234 235 238 241
124 99 109 123 113 113 139 147 147 153 165 178 189 195 204 214 220 227 234 238 241 245 249 254 258 262 265 269 271 274 276 276 276 276 277 278 280 280 279 279 279 280 282 285 287 288 287 286 285 284 283 283 282 281 280 279 278 277 276 275 273 271 269 266 264 262 261 259 257 255 253 251 248 246 244 242 241 241 240 237 233 232 233 233 235 238
134 121 145 149 125 124 152 162 163 164 175 194 207 216 229 240 250 257 261 264 268 271 273 276 278 279 280 280 280 280 279 279 279 279 279 280 280 279 279 280 282 285 289 291 292 291 290 290 290 289 289 288 287 286 285 283 282 280 277 275 274 272 270 268 265 264 262 261 259 257 255 253 250 246 243 240 240 240 239 236 232 230 231 232 233 236
241 193 179 187 182 172 177 183 182 183 198 218 228 240 252 258 264 270 273 277 280 281 281 282 281 281 280 280 279 279 280 280 281 282 283 284 284 282 282 284 287 291 294 295 295 294 295 296 296 296 296 296 295 294 293 291 289 286 283 279 276 272 270 268 265 263 261 260 259 258 256 254 252 249 245 241 238 238 239 240 237 233 232 233 232 233
260 245 218 209 197 191 193 192 191 199 216 226 232 243 251 255 260 265 269 273 276 278 279 280 280 280 281 281 282 283 285 287 288 288 289 289 288 287 287 289 292 295 296 295 295 297 299 301 302 303 304 304 303 302 301 300 299 297 293 288 283 278 274 269 265 262 260 258 257 256 255 253 252 249 246 243 239 237 237 240 241 241 239 237 236 236
Height
3083 3085 3085 3086 3088 3090 3091 3092 3093 3094 3095 3096 3097 3098 3099 3099 3100 3101 3102 3102 3102 3102 3102 3102 3102 3103 3104 3106 3107 3109 3110 3112 3113 3114 3116 3118 3119 3121 3122 3124 3125 3126 3126 3127 3128 3128 3129 3130 3131 3133 3135 3136 3137 3139 3141 3143 3144 3145 3147 3148 3149 3149 3150 3151 3153 3153 3154 3154 3155 3155 3155 3155 3154 3154 3153 3152 3150 3149 3147 3146 3145 3145 3144 3145 3145 3145
3083 3084 3085 3087 3088 3089 3090 3091 3092 3093 3094 3095 3096 3097 3097 3098 3099 3100 3100 3100 3101 3101 3100 3100 3099 3100 3102 3103 3105 3106 3109 3111 3112 3113 3115 3117 3118 3119 3121 3123 3124 3125 3125 3126 3127 3127 3128 3129 3130 3132 3134 3136 3137 3138 3140 3142 3142 3143 3145 3147 3148 3148 3149 3150 3151 3152 3153 3153 3154 3154 3154 3154 3154 3153 3152 3151 3150 3148 3147 3146 3145 3144 3144 3144 3144 3145
3082 3083 3085 3086 3087 3088 3089 3090 3091 3092 3093 3094 3095 3096 3096 3097 3098 3099 3099 3099 3099 3099 3098 3097 3097 3098 3099 3101 3102 3105 3107 3109 3111 3112 3114 3115 3117 3118 3120 3122 3123 3124 3124 3125 3126 3127 3127 3128 3129 3131 3133 3135 3136 3137 3138 3140 3141 3142 3144 3146 3146 3146 3148 3149 3150 3151 3151 3152 3152 3153 3153 3153 3153 3153 3152 3150 3149 3148 3147 3146 3144 3144 3143 3143 3144 3144
3082 3082 3084 3085 3086 3087 3088 3088 3089 3091 3092 3093 3093 3094 3095 3096 3096 3097 3097 3097 3097 3097 3096 3095 3095 3096 3098 3099 3101 3103 3106 3107 3109 3111 3112 3113 3115 3117 3119 3121 3122 3123 3124 3125 3125 3126 3127 3127 3128 3130 3132 3133 3134 3136 3137 3138 3139 3140 3142 3144 3145 3145 3146 3147 3149 3150 3150 3151 3151 3152 3152 3152 3152 3152 3151 3150 3149 3148 3147 3146 3145 3144 3143 3143 3143 3143
3081 3082 3083 3084 3085 3086 3087 3087 3088 3089 3090 3091 3092 3093 3094 3094 3095 3096 3096 3096 3096 3095 3095 3094 3095 3096 3097 3099 3100 3102 3104 3106 3107 3109 3110 3111 3113 3115 3117 3119 3121 3122 3123 3124 3125 3126 3126 3127 3128 3129 3131 3132 3133 3134 3135 3137 3138 3139 3140 3142 3142 3143 3144 3146 3147 3148 3149 3150 3150 3151 3151 3152 3152 3151 3150 3150 3149 3148 3147 3146 3145 3144 3143 3143 3143 3143
3081 3082 3082 3084 3085 3085 3086 3086 3087 3088 3089 3090 3091 3092 3093 3093 3094 3094 3095 3095 3095 3095 3094 3094 3095 3095 3096 3098 3099 3101 3103 3104 3106 3107 3108 3110 3112 3114 3116 3118 3119 3121 3122 3123 3124 3125 3126 3126 3127 3128 3130 3131 3131 3132 3133 3134 3135 3136 3138 3139 3140 3140 3142 3144 3146 3147 3148 3149 3149 3150 3151 3151 3151 3151 3150 3150 3149 3147 3147 3146 3145 3144 3143 3143 3142 3142
3079 3081 3082 3083 3084 3084 3084 3085 3086 3087 3089 3089 3090 3091 3092 3092 3093 3093 3094 3094 3094 3094 3094 3094 3094 3095 3096 3097 3098 3100 3102 3103 3104 3106 3107 3109 3111 3113 3114 3116 3118 3120 3121 3122 3123 3124 3125 3126 3126 3127 3128 3129 3129 3130 3131 3131 3131 3133 3134 3135 3137 3138 3141 3143 3145 3146 3147 3148 3148 3149 3150 3150 3150 3150 3150 3150 3149 3148 3147 3146 3145 3144 3143 3142 3142 3142
3078 3080 3081 3082 3082 3083 3083 3084 3085 3086 3087 3088 3089 3090 3091 3091 3092 3092 3093 3093 3093 3093 3093 3094 3093 3094 3096 3096 3097 3099 3101 3102 3103 3105 3107 3109 3110 3112 3113 3115 3116 3118 3120 3121 3122 3123 3124 3125 3125 3126 3126 3127 3127 3126 3126 3127 3127 3129 3131 3132 3134 3136 3139 3141 3143 3144 3145 3146 3148 3148 3149 3149 3150 3150 3150 3150 3149 3149 3148 3147 3146 3145 3143 3142 3142 3141
3078 3079 3080 3081 3081 3082 3082 3083 3084 3085 3086 3087 3088 3089 3090 3091 3091 3092 3092 3092 3093 3093 3093 3093 3093 3094 3095 3096 3096 3098 3099 3101 3102 3104 3106 3108 3110 3111 3112 3113 3115 3116 3118 3120 3121 3123 3124 3124 3125 3125 3125 3124 3122 3121 3122 3124 3125 3127 3128 3130 3132 3134 3137 3140 3141 3142 3144 3145 3146 3147 3148 3149 3149 3149 3149 3149 3149 3149 3148 3148 3147 3146 3144 3143 3142 3141
3077 3078 3079 3080 3080 3081 3082 3082 3083 3084 3085 3086 3087 3088 3089 3090 3091 3091 3091 3092 3092 3092 3092 3092 3092 3093 3094 3096 3096 3097 3099 3100 3102 3103 3105 3107 3108 3110 3111 3112 3113 3115 3116 3118 3120 3122 3122 3123 3123 3122 3121 3118 3113 3113 3115 3117 3120 3123 3125 3128 3130 3133 3135 3138 3140 3141 3142 3144 3145 3146 3147 3148 3148 3148 3148 3148 3148 3148 3148 3147 3147 3146 3145 3144 3142 3141
3076 3077 3078 3078 3079 3080 3081 3081 3082 3083 3084 3085 3087 3088 3089 3089 3090 3090 3091 3091 3092 3091 3091 3092 3092 3092 3094 3095 3096 3097 3098 3100 3101 3103 3104 3105 3107 3108 3109 3111 3112 3113 3115 3116 3118 3119 3120 3121 3121 3120 3118 3115 3113 3115 3118 3118 3119 3119 3120 3122 3126 3130 3134 3136 3138 3140 3141 3142 3144 3145 3146 3147 3147 3147 3147 3147 3147 3147 3147 3147 3146 3145 3144 3143 3142 3142
3075 3076 3076 3077 3078 3079 3079 3080 3081 3081 3082 3084 3086 3087 3088 3089 3089 3090 3090 3090 3091 3090 3090 3091 3092 3092 3093 3094 3096 3097 3098 3100 3101 3102 3103 3104 3105 3106 3107 3109 3110 3111 3113 3114 3115 3117 3118 3119 3119 3118 3117 3117 3117 3120 3124 3125 3125 3122 3120 3119 3120 3124 3131 3135 3138 3139 3141 3142 3143 3144 3145 3145 3145 3146 3146 3147 3147 3147 3147 3147 3146 3145 3144 3143 3142 3141
3073 3074 3075 3076 3076 3077 3078 3079 3080 3080 3081 3083 3084 3086 3087 3088 3089 3090 3090 3090 3089 3089 3090 3090 3091 3092 3093 3093 3095 3096 3098 3099 3100 3101 3102 3103 3104 3105 3106 3107 3108 3109 3111 3112 3113 3115 3117 3118 3118 3117 3117 3118 3118 3120 3124 3127 3129 3129 3128 3126 3124 3124 3127 3133 3137 3139 3140 3141 3142 3143 3143 3144 3144 3144 3145 3146 3146 3146 3146 3146 3146 3145 3144 3143 3142 3141
3071 3072 3073 3074 3074 3075 3076 3077 3078 3079 3080 3081 3083 3084 3085 3086 3090 3091 3091 3091 3090 3088 3089 3090 3091 3092 3092 3093 3094 3096 3097 3098 3099 3100 3101 3102 3103 3104 3105 3106 3106 3107 3108 3109 3111 3113 3114 3115 3115 3114 3114 3115 3115 3116 3120 3124 3127 3129 3131 3132 3133 3132 3130 3129 3132 3136 3137 3138 3139 3140 3141 3142 3141 3141 3142 3143 3144 3145 3145 3145 3145 3145 3144 3143 3142 3141
3070 3070 3071 3072 3073 3073 3075 3076 3077 3078 3079 3080 3081 3082 3083 3084 3086 3088 3088 3088 3088 3087 3088 3090 3090 3090 3091 3092 3094 3095 3096 3097 3098 3099 3100 3101 3102 3102 3103 3104 3104 3105 3106 3107 3109 3109 3110 3111 3110 3111 3114 3116 3115 3114 3115 3120 3124 3126 3128 3131 3132 3135 3134 3130 3129 3132 3136 3137 3138 3139 3140 3140 3140 3139 3140 3141 3142 3142 3143 3143 3144 3144 3144 3143 3143 3142
3068 3068 3069 3070 3071 3072 3073 3074 3075 3077 3077 3078 3079 3081 3082 3082 3083 3084 3085 3085 3086 3086 3087 3088 3088 3089 3090 3091 3092 3093 3094 3096 3097 3098 3099 3100 3100 3101 3102 3102 3103 3103 3104 3105 3106 3107 3108 3108 3107 3110 3115 3117 3119 3118 3116 3118 3123 3125 3127 3129 3130 3131 3133 3133 3131 3132 3134 3137 3137 3138 3138 3138 3137 3137 3137 3138 3139 3139 3140 3141 3142 3143 3143 3143 3142 3142
3066 3067 3067 3068 3069 3070 3071 3072 3073 3074 3075 3076 3077 3078 3079 3081 3081 3082 3084 3085 3086 3086 3086 3086 3087 3088 3089 3090 3091 3092 3093 3094 3095 3096 3097 3098 3099 3099 3099 3100 3100 3101 3102 3103 3104 3105 3106 3105 3105 3109 3113 3115 3118 3119 3118 3119 3123 3125 3127 3128 3127 3128 3130 3132 3133 3131 3131 3133 3133 3133 3135 3135 3135 3134 3135 3136 3136 3136 3137 3139 3140 3142 3142 3142 3142 3142
3065 3065 3066 3067 3067 3068 3069 3070 3071 3072 3073 3074 3075 3076 3078 3079 3080 3081 3083 3085 3086 3085 3084 3085 3086 3087 3087 3088 3089 3090 3091 3092 3093 3094 3095 3095 3096 3096 3096 3097 3097 3098 3099 3100 3101 3102 3104 3104 3104 3107 3111 3115 3116 3117 3119 3120 3122 3124 3126 3125 3124 3126 3127 3129 3129 3128 3128 3130 3129 3130 3131 3132 3131 3132 3132 3133 3132 3132 3134 3135 3138 3140 3141 3141 3142 3142
3064 3065 3065 3065 3066 3067 3067 3068 3069 3070 3071 3072 3073 3075 3076 3076 3078 3079 3081 3083 3084 3085 3085 3085 3085 3086 3085 3086 3087 3089 3090 3090 3091 3091 3092 3093 3093 3093 3093 3094 3095 3095 3096 3098 3099 3100 3102 3103 3104 3106 3109 3112 3113 3115 3118 3120 3122 3123 3123 3122 3122 3124 3126 3126 3125 3125 3126 3127 3128 3129 3129 3128 3128 3129 3130 3129 3128 3129 3131 3132 3135 3138 3140 3140 3141 3142
3063 3064 3064 3064 3065 3065 3066 3066 3066 3067 3069 3070 3072 3073 3074 3074 3075 3076 3077 3078 3079 3083 3085 3084 3084 3084 3084 3085 3086 3087 3088 3089 3089 3090 3090 3091 3091 3092 3092 3093 3094 3094 3096 3097 3098 3100 3101 3102 3105 3107 3108 3110 3112 3114 3117 3119 3120 3121 3121 3121 3122 3123 3124 3124 3123 3124 3125 3126 3127 3127 3127 3127 3127 3127 3127 3127 3127 3127 3129 3131 3134 3136 3138 3139 3140 3141
3061 3062 3063 3063 3064 3064 3064 3064 3064 3065 3066 3068 3069 3070 3071 3072 3074 3075 3076 3076 3076 3079 3081 3082 3083 3082 3082 3084 3085 3086 3087 3088 3089 3089 3089 3090 3090 3091 3092 3093 3094 3095 3096 3098 3099 3100 3101 3103 3106 3107 3108 3110 3111 3113 3115 3117 3118 3119 3120 3120 3121 3122 3122 3122 3122 3122 3124 3125 3126 3126 3126 3126 3125 3125 3125 3126 3125 3126 3128 3131 3133 3135 3136 3137 3138 3139
3058 3059 3061 3062 3063 3063 3063 3063 3063 3064 3065 3065 3066 3067 3068 3070 3071 3072 3074 3075 3075 3076 3078 3079 3079 3079 3080 3082 3083 3084 3086 3087 3088 3088 3089 3089 3090 3091 3092 3092 3094 3095 3097 3098 3099 3100 3102 3104 3105 3106 3107 3109 3111 3112 3114 3115 3116 3117 3118 3119 3119 3120 3120 3120 3121 3122 3123 3124 3125 3125 3125 3124 3124 3124 3124 3124 3125 3125 3127 3130 3133 3134 3135 3136 3137 3139
3056 3058 3059 3060 3061 3061 3061 3061 3062 3063 3063 3064 3065 3066 3067 3068 3069 3070 3071 3072 3073 3074 3075 3076 3076 3077 3079 3081 3081 3083 3084 3086 3087 3087 3088 3089 3090 3091 3091 3092 3093 3095 3096 3098 3099 3101 3102 3103 3104 3106 3107 3109 3110 3112 3113 3114 3115 3116 3117 3117 3118 3118 3119 3120 3121 3122 3122 3123 3123 3123 3122 3122 3122 3123 3124 3124 3125 3125 3127 3129 3132 3133 3133 3134 3136 3137
3054 3056 3057 3059 3060 3060 3060 3060 3061 3061 3062 3062 3063 3064 3065 3066 3067 3068 3069 3070 3071 3072 3073 3074 3075 3076 3077 3079 3080 3082 3083 3084 3085 3086 3088 3089 3090 3090 3091 3092 3093 3094 3096 3097 3098 3100 3101 3102 3104 3105 3107 3109 3110 3111 3112 3113 3114 3115 3115 3116 3117 3118 3119 3119 3120 3121 3121 3121 3121 3121 3121 3120 3121 3122 3124 3125 3125 3125 3126 3128 3130 3132 3132 3133 3134 3136
3053 3055 3056 3057 3058 3060 3060 3060 3060 3060 3061 3061 3062 3063 3064 3065 3066 3067 3068 3069 3069 3070 3071 3072 3072 3073 3075 3077 3079 3080 3082 3083 3084 3085 3087 3088 3089 3090 3091 3091 3092 3094 3095 3096 3097 3098 3100 3102 3103 3104 3106 3107 3109 3110 3111 3112 3113 3113 3114 3115 3116 3117 3118 3118 3119 3120 3120 3120 3120 3120 3120 3119 3120 3121 3123 3124 3124 3124 3125 3127 3128 3130 3131 3132 3133 3134
3053 3054 3055 3054 3055 3056 3057 3057 3057 3059 3060 3060 3061 3062 3063 3064 3065 3066 3067 3067 3067 3068 3069 3069 3070 3071 3073 3076 3077 3079 3080 3081 3082 3084 3086 3087 3088 3089 3090 3091 3092 3093 3094 3095 3096 3098 3099 3101 3102 3103 3105 3106 3107 3108 3109 3110 3111 3112 3112 3113 3114 3115 3116 3117 3117 3118 3118 3119 3119 3119 3119 3119 3120 3121 3122 3122 3123 3123 3124 3125 3126 3127 3129 3130 3131 3131
3051 3053 3054 3054 3053 3053 3054 3055 3056 3057 3058 3059 3060 3061 3061 3062 3063 3064 3065 3065 3065 3067 3067 3068 3068 3070 3072 3074 3076 3077 3078 3079 3081 3082 3084 3086 3087 3088 3089 3090 3091 3092 3093 3095 3096 3097 3099 3100 3101 3102 3104 3105 3106 3107 3107 3108 3109 3110 3111 3112 3113 3114 3114 3115 3115 3116 3116 3117 3117 3117 3118 3118 3118 3119 3120 3120 3121 3121 3122 3123 3124 3125 3126 3127 3128 3129
3050 3053 3054 3054 3054 3054 3055 3055 3056 3056 3057 3057 3058 3059 3059 3060 3061 3063 3064 3064 3065 3065 3066 3067 3068 3069 3070 3073 3074 3076 3077 3078 3079 3081 3083 3084 3086 3087 3088 3089 3090 3092 3093 3094 3095 3097 3098 3099 3100 3101 3102 3103 3104 3105 3106 3107 3108 3108 3109 3110 3111 3111 3112 3112 3113 3113 3114 3114 3115 3115 3115 3116 3116 3117 3117 3118 3118 3119 3120 3120 3121 3121 3122 3124 3126 3127
3048 3052 3054 3054 3054 3054 3055 3056 3056 3056 3057 3057 3057 3058 3058 3059 3059 3061 3062 3063 3064 3064 3065 3066 3067 3068 3069 3071 3073 3074 3075 3077 3078 3079 3081 3083 3084 3086 3087 3088 3089 3091 3092 3093 3094 3096 3097 3098 3098 3099 3100 3101 3102 3103 3104 3105 3106 3106 3107 3108 3108 3109 3109 3110 3110 3111 3111 3112 3112 3112 3113 3113 3113 3114 3114 3115 3115 3116 3117 3117 3117 3118 3120 3121 3123 3123
3047 3050 3052 3052 3053 3054 3054 3055 3056 3056 3057 3057 3057 3058 3058 3058 3059 3060 3061 3061 3062 3063 3064 3065 3067 3068 3069 3070 3072 3073 3074 3075 3077 3078 3079 3081 3083 3084 3086 3087 3088 3089 3091 3092 3093 3094 3095 3096 3096 3097 3098 3099 3100 3101 3102 3102 3103 3104 3105 3105 3106 3107 3107 3107 3108 3108 3109 3109 3110 3110 3110 3110 3110 3111 3111 3112 3112 3112 3113 3113 3113 3114 3116 3118 3119 3120
3046 3049 3050 3051 3053 3054 3054 3055 3056 3057 3058 3058 3058 3058 3058 3059 3059 3060 3060 3061 3062 3063 3064 3065 3066 3068 3069 3070 3071 3072 3074 3075 3076 3077 3078 3080 3081 3083 3084 3085 3086 3088 3089 3090 3091 3092 3093 3094 3095 3096 3096 3097 3098 3099 3100 3100 3101 3101 3102 3103 3104 3104 3105 3105 3106 3106 3107 3107 3108 3108 3108 3108 3108 3108 3109 3109 3109 3109 3109 3109 3110 3110 3111 3113 3115 3115
3044 3047 3048 3050 3052 3053 3054 3056 3056 3057 3058 3058 3058 3059 3059 3059 3060 3060 3061 3062 3062 3063 3064 3065 3066 3067 3069 3070 3071 3072 3073 3074 3075 3076 3078 3079 3080 3081 3082 3083 3085 3086 3087 3088 3089 3090 3091 3092 3093 3094 3094 3095 3096 3096 3097 3098 3098 3099 3100 3100 3101 3102 3102 3103 3103 3104 3104 3104 3105 3105 3106 3106 3106 3106 3106 3106 3107 3107 3106 3106 3106 3107 3108 3109 3111 3112
3042 3043 3045 3047 3049 3051 3053 3055 3056 3058 3060 3058 3056 3057 3058 3059 3060 3060 3061 3062 3063 3064 3065 3065 3066 3067 3069 3070 3071 3072 3073 3074 3075 3076 3077 3078 3079 3080 3081 3082 3083 3084 3085 3086 3087 3088 3089 3090 3090 3091 3092 3093 3093 3094 3094 3095 3096 3096 3097 3098 3098 3099 3099 3100 3100 3101 3101 3102 3102 3102 3103 3103 3104 3104 3104 3104 3104 3104 3104 3103 3104 3104 3105 3106 3108 3109
3040 3041 3043 3045 3047 3049 3051 3053 3056 3059 3058 3054 3054 3056 3056 3057 3059 3059 3060 3061 3063 3064 3065 3066 3067 3067 3068 3069 3070 3071 3072 3073 3074 3075 3076 3077 3078 3078 3079 3080 3081 3082 3083 3084 3085 3086 3087 3087 3088 3089 3090 3090 3091 3091 3092 3092 3093 3093 3094 3095 3095 3096 3096 3097 3097 3098 3098 3098 3099 3099 3099 3100 3101 3101 3101 3101 3102 3102 3102 3102 3102 3102 3102 3103 3104 3105
3040 3041 3042 3043 3045 3047 3049 3052 3055 3055 3052 3050 3053 3054 3054 3055 3057 3058 3059 3060 3061 3063 3064 3065 3066 3067 3068 3069 3070 3072 3072 3073 3074 3074 3075 3076 3076 3077 3078 3079 3080 3081 3082 3082 3083 3084 3085 3085 3086 3087 3087 3088 3088 3089 3089 3090 3090 3091 3091 3092 3092 3093 3093 3094 3094 3094 3095 3095 3096 3096 3096 3096 3097 3098 3098 3099 3099 3099 3099 3099 3099 3099 3099 3099 3099 3100
3039 3040 3041 3042 3043 3045 3047 3049 3050 3049 3047 3049 3051 3051 3052 3054 3055 3056 3057 3058 3059 3061 3062 3063 3065 3066 3067 3068 3070 3071 3072 3073 3073 3074 3074 3075 3075 3076 3077 3077 3078 3079 3080 3081 3081 3082 3083 3083 3083 3084 3084 3085 3085 3085 3086 3087 3087 3088 3088 3089 3089 3090 3090 3090 3091 3091 3092 3092 3092 3093 3093 3093 3093 3094 3094 3095 3096 3096 3096 3096 3096 3096 3096 3096 3096 3097
3039 3040 3040 3041 3042 3043 3044 3044 3045 3045 3046 3047 3048 3049 3050 3052 3053 3054 3055 3056 3058 3059 3060 3061 3062 3063 3065 3066 3067 3069 3070 3071 3072 3072 3073 3073 3074 3074 3075 3076 3076 3077 3078 3078 3079 3080 3080 3080 3080 3081 3081 3082 3082 3082 3083 3083 3084 3085 3085 3086 3086 3087 3087 3087 3087 3088 3088 3088 3089 3089 3090 3090 3091 3091 3091 3091 3092 3092 3093 3093 3093 3093 3093 3093 3093 3093
3038 3039 3040 3040 3040 3041 3042 3043 3044 3045 3044 3044 3046 3047 3049 3050 3052 3053 3054 3055 3056 3057 3059 3060 3061 3062 3063 3064 3065 3066 3068 3069 3070 3070 3071 3072 3072 3073 3073 3074 3075 3075 3075 3076 3076 3077 3077 3077 3078 3078 3079 3079 3080 3080 3080 3081 3081 3082 3082 3082 3083 3083 3083 3083 3083 3084 3084 3084 3085 3085 3086 3087 3087 3088 3088 3088 3088 3089 3089 3090 3090 3090 3090 3090 3089 3090
3037 3038 3038 3039 3040 3040 3040 3041 3041 3042 3042 3042 3044 3046 3048 3049 3051 3053 3054 3055 3055 3056 3058 3059 3060 3061 3062 3063 3064 3065 3066 3067 3068 3069 3069 3070 3070 3071 3071 3072 3072 3073 3073 3074 3074 3075 3075 3075 3075 3076 3076 3076 3076 3077 3077 3078 3078 3078 3079 3079 3079 3079 3079 3079 3079 3080 3080 3081 3081 3082 3082 3083 3084 3084 3084 3085 3085 3085 3085 3086 3086 3087 3087 3087 3087 3088
3035 3035 3037 3038 3038 3039 3040 3040 3040 3040 3041 3041 3043 3045 3046 3048 3050 3052 3053 3052 3053 3055 3057 3058 3059 3060 3061 3062 3063 3064 3065 3065 3066 3067 3067 3068 3068 3069 3069 3069 3070 3070 3071 3071 3072 3072 3072 3073 3073 3073 3073 3073 3073 3073 3073 3074 3074 3074 3075 3075 3075 3075 3075 3075 3075 3075 3076 3077 3077 3078 3078 3078 3079 3080 3080 3080 3081 3081 3081 3082 3083 3083 3084 3084 3084 3085
3032 3033 3035 3036 3037 3039 3040 3040 3040 3040 3040 3041 3042 3044 3045 3048 3049 3050 3050 3050 3052 3054 3055 3056 3058 3059 3059 3061 3061 3062 3063 3063 3064 3064 3065 3065 3065 3066 3066 3067 3067 3067 3068 3068 3068 3069 3069 3069 3069 3069 3069 3069 3069 3069 3069 3069 3070 3070 3070 3070 3070 3070 3070 3070 3070 3071 3071 3072 3073 3073 3074 3074 3074 3075 3076 3076 3076 3077 3077 3078 3079 3079 3080 3081 3082 3083
3032 3033 3034 3034 3036 3038 3039 3040 3040 3040 3040 3041 3042 3043 3045 3047 3048 3048 3048 3049 3051 3052 3053 3055 3056 3057 3058 3059 3060 3060 3061 3061 3062 3062 3062 3063 3063 3063 3064 3064 3064 3065 3065 3065 3065 3065 3065 3065 3065 3065 3065 3065 3065 3064 3064 3064 3065 3065 3065 3065 3065 3065 3064 3064 3065 3065 3065 3066 3067 3068 3068 3069 3070 3070 3071 3072 3072 3072 3073 3073 3074 3075 3076 3077 3079 3080
3032 3033 3034 3034 3035 3036 3037 3038 3039 3038 3038 3040 3042 3043 3045 3046 3046 3047 3048 3049 3050 3051 3053 3054 3054 3055 3056 3057 3058 3058 3059 3059 3059 3060 3060 3060 3061 3061 3061 3061 3062 3062 3062 3061 3061 3061 3061 3061 3061 3061 3061 3061 3060 3060 3059 3059 3059 3059 3059 3059 3059 3059 3058 3058 3058 3059 3059 3060 3061 3062 3063 3063 3064 3065 3066 3067 3067 3068 3068 3069 3070 3070 3071 3073 3075 3076
3033 3033 3033 3034 3035 3035 3036 3036 3036 3036 3037 3039 3040 3042 3043 3044 3045 3046 3047 3049 3050 3050 3051 3052 3053 3054 3055 3055 3056 3056 3057 3057 3057 3058 3058 3058 3058 3059 3059 3059 3059 3058 3058 3058 3057 3057 3056 3056 3056 3057 3056 3056 3055 3054 3053 3053 3052 3052 3052 3053 3053 3052 3052 3051 3051 3052 3053 3054 3055 3056 3057 3058 3059 3060 3061 3062 3063 3063 3064 3065 3065 3066 3067 3068 3070 3071
3033 3033 3033 3033 3034 3034 3034 3035 3035 3036 3037 3038 3039 3040 3042 3043 3044 3045 3046 3047 3048 3049 3050 3051 3052 3052 3053 3054 3054 3054 3055 3055 3055 3055 3056 3056 3056 3056 3055 3055 3055 3054 3054 3053 3053 3052 3052 3051 3051 3051 3050 3050 3048 3047 3046 3045 3044 3044 3044 3044 3044 3044 3044 3044 3044 3044 3045 3046 3048 3049 3050 3051 3053 3054 3055 3056 3058 3059 3059 3060 3061 3061 3063 3064 3065 3066
3033 3033 3033 3033 3033 3034 3034 3035 3035 3036 3037 3038 3039 3040 3041 3042 3044 3045 3045 3046 3047 3048 3049 3050 3050 3051 3051 3052 3052 3052 3052 3052 3052 3052 3052 3052 3052 3052 3051 3051 3050 3050 3049 3048 3047 3047 3046 3046 3045 3044 3043 3042 3041 3040 3038 3037 3036 3035 3035 3035 3035 3035 3034 3034 3035 3035 3036 3037 3039 3041 3042 3044 3046 3047 3049 3050 3052 3053 3054 3054 3055 3056 3058 3059 3061 3062
3033 3033 3033 3033 3034 3034 3035 3035 3036 3037 3037 3038 3039 3040 3042 3043 3044 3045 3045 3046 3047 3048 3048 3049 3049 3049 3049 3049 3049 3049 3049 3049 3049 3049 3048 3048 3048 3047 3047 3046 3045 3045 3044 3043 3042 3042 3041 3040 3038 3037 3036 3035 3034 3033 3032 3030 3029 3028 3027 3026 3026 3026 3026 3026 3026 3026 3027 3029 3030 3032 3034 3036 3038 3040 3042 3044 3045 3046 3047 3048 3049 3051 3052 3053 3055 3057
3033 3034 3034 3034 3034 3035 3036 3036 3037 3038 3038 3039 3040 3041 3042 3042 3043 3044 3045 3045 3046 3046 3046 3047 3047 3047 3047 3047 3046 3046 3046 3045 3045 3045 3045 3044 3044 3043 3042 3041 3040 3040 3040 3039 3038 3037 3035 3034 3032 3031 3030 3029 3027 3026 3026 3025 3023 3022 3020 3019 3018 3018 3018 3018 3018 3019 3019 3020 3022 3023 3025 3027 3030 3032 3035 3038 3039 3039 3040 3041 3043 3044 3046 3048 3050 3051
3034 3034 3034 3035 3035 3036 3036 3037 3037 3038 3038 3039 3039 3040 3041 3041 3042 3042 3042 3042 3043 3043 3043 3043 3043 3043 3043 3043 3043 3042 3042 3042 3041 3041 3041 3040 3040 3039 3038 3037 3036 3036 3036 3035 3034 3032 3030 3028 3027 3026 3024 3023 3021 3019 3018 3017 3016 3014 3013 3011 3010 3009 3009 3009 3010 3011 3011 3012 3013 3015 3017 3019 3022 3024 3026 3029 3032 3033 3034 3035 3037 3038 3040 3042 3044 3045
3033 3034 3034 3035 3035 3036 3036 3036 3037 3038 3038 3038 3038 3039 3039 3040 3040 3040 3040 3040 3040 3040 3040 3040 3040 3040 3040 3040 3039 3039 3039 3038 3038 3037 3037 3036 3036 3035 3034 3033 3033 3032 3031 3030 3029 3027 3025 3024 3022 3021 3019 3017 3015 3013 3011 3009 3008 3006 3004 3003 3002 3000 2999 2999 3000 3001 3003 3004 3005 3007 3010 3012 3014 3016 3018 3020 3024 3026 3028 3029 3031 3032 3034 3037 3038 3039
3032 3033 3033 3034 3034 3035 3035 3036 3036 3037 3037 3037 3038 3038 3038 3038 3038 3038 3038 3038 3038 3038 3038 3037 3037 3037 3037 3036 3036 3035 3035 3035 3034 3033 3033 3032 3032 3031 3030 3030 3029 3029 3027 3026 3025 3024 3022 3020 3019 3017 3015 3013 3011 3009 3006 3004 3002 2999 2997 2995 2993 2992 2990 2989 2989 2991 2993 2996 2997 2999 3001 3003 3005 3008 3010 3012 3015 3018 3020 3022 3024 3027 3030 3032 3034 3034